www.pogodaiklimat.ru

Погода и климат >> Архив погоды >> Колумбия >> Санта-Марта


ПОГОДА в Санта-Марте

  • Прогноз погоды в Санта-Марте
  • Монитор погоды в Санта-Марте

АРХИВ ПОГОДЫ в Санта-Марте

Время (UTC), дата Ветер
(напр.,м/с)
 
Видим.   Явления Облачность Т
(С)
Тd
(С)
f
(%)
Тe
(С)
Тes
(С)
Комфортность P
(гПа)
Po
(гПа)
Тmin
(С)
Tmax
(С)
R
(мм)
R24
(мм)
S
(см)
18 15.03 ЮЗ 3 8000 м мгла 3/1 600 м
[Cu Sc Ci fib]
+30.7 +23.3 65 +41 +55 опасность
перегрева
1011.0 1010.5
21 15.03 ЮЗ 3 8000 м мгла 3/1 600 м
[Cu Sc Ci fib]
+30.7 +23.3 65 +41 +45 опасность
перегрева
1011.0 1010.5
00 16.03 СВ 9 8000 м мгла 5/1 600 м
[Cu Sc Ac trans Ci fib]
+29.0 +21.7 65 +37 +37 очень
душно
1008.0 1007.5 +35.1
12 16.03 штиль 0 7000 м мгла 1/1 600 м
[Sc Ci fib]
+25.0 +22.5 86 +33 +35 очень
душно
1011.0 1010.5 +24.4
15 16.03 ЮЗ 3 6000 м мгла 1/1 600 м
[Cu hum Ci fib]
+28.6 +24.5 79 +41 +53 опасность
перегрева
1012.9 1012.4
18 16.03 З 2 6000 м мгла 4/1 600 м
[Cu Sc Ci fib]
+31.0 +22.8 62 +41 +58 опасность
перегрева
1010.0 1009.5
21 16.03 С 10 7000 м мгла 4/1 600 м
[Cu Sc Ci fib]
+35.2 +20.2 42 +42 +42 опасность
перегрева
1007.4 1006.9
00 17.03 С 11 7000 м мгла 4/1 600 м
[Cu Sc Ci fib]
+29.8 +19.5 54 +36 +36 очень
душно
1007.2 1006.7 +35.4
03 17.03 СВ 7 7000 м мгла 4/1 600 м
[Cu Sc Ci fib]
+28.4 +19.8 60 +35 +35 очень
душно
1009.1 1008.6
12 17.03 Ю 4 6000 м мгла 6/3 600 м
[Cu Sc Ci sp]
+25.9 +22.0 79 +33 +34 очень
душно
1008.8 1008.3 +24.4
15 17.03 СЗ 3 6000 м мгла 6/3 600 м
[Cu Sc Ci sp]
+28.7 +22.8 70 +38 +47 очень
душно
1011.6 1011.1
18 17.03 З 2 7000 м мгла 4/1 600 м
[Cu Sc Ci fib]
+31.0 +23.3 64 +42 +58 опасность
перегрева
1009.2 1008.7
21 17.03 С 7 8000 м мгла 4/1 600 м
[Cu Sc Ci fib]
+34.4 +21.3 47 +42 +43 опасность
перегрева
1005.8 1005.3
00 18.03 С 7 8000 м мгла 4/1 600 м
[Sc Ci fib]
+29.2 +21.7 64 +37 +37 очень
душно
1005.9 1005.4 +35.5
03 18.03 СВ 5 8000 м мгла 3/1 600 м
[Sc Ci fib]
+28.4 +21.2 65 +36 +36 очень
душно
1007.5 1007.0
12 18.03 штиль 0 6000 м мгла 4/3 500 м
[Cu Sc Ci fib]
+25.2 +22.7 86 +33 +35 очень
душно
1010.1 1009.6 +25.1
15 18.03 ЮЗ 2 6000 м мгла 1/1 600 м
[Cu hum Ci fib]
+29.6 +24.0 72 +41 +56 опасность
перегрева
1011.3 1010.8
18 18.03 ЮЗ 5 6000 м мгла 4/1 600 м
[Cu Sc Ci fib]
+31.0 +25.1 71 +45 +53 опасность
перегрева
1008.7 1008.2
21 18.03 С 10 6000 м мгла 4/1 600 м
[Cu Sc Ci fib]
+34.4 +21.3 47 +42 +42 опасность
перегрева
1005.9 1005.4
03 19.03 СВ 8 6000 м мгла 4/1 600 м
[Cu Sc Ci fib]
+28.0 +21.2 67 +35 +35 очень
душно
1008.8 1008.3
12 19.03 Ю 3 6000 м мгла 6/3 600 м
[Cu Sc Ci fib]
+26.0 +23.2 85 +35 +36 очень
душно
1011.0 1010.5 +24.8
15 19.03 СЗ 4 6000 м мгла 6/1 600 м
[Cu Sc Ci fib]
+28.8 +23.9 75 +40 +49 очень
душно
1012.7 1012.2
18 19.03 З 3 6000 м мгла 4/1 600 м
[Cu Sc Ci fib]
+30.2 +23.1 66 +40 +54 опасность
солнечного
удара
1011.6 1011.1
21 19.03 С 5 6000 м мгла 4/1 600 м
[Cu Sc Ci fib]
+32.8 +23.4 58 +44 +46 опасность
перегрева
1008.0 1007.5
00 20.03 Ю 6 6000 м мгла 8/3 500 м
[Cu Sc Ac trans Ci sp]
+30.4 +24.5 71 +43 +43 опасность
перегрева
1009.2 1008.7 +34.6
03 20.03 СЗ 2 7000 м мгла 6/1 500 м
[Cu Sc Ci sp]
+28.5 +22.1 68 +37 +37 очень
душно
1012.4 1011.9
12 20.03 штиль 0 6000 м мгла 6/1 600 м
[Sc Ci sp]
+26.2 +21.4 75 +33 +35 очень
душно
1012.3 1011.8 +25.9
15 20.03 ЮЗ 3 6000 м мгла 6/3 600 м
[Cu Sc Ci sp]
+29.1 +23.5 72 +40 +48 очень
душно
1014.4 1013.9
18 20.03 СЗ 4 6000 м мгла 5/3 <50 м
[Cu Sc Ci fib]
+32.2 +23.2 59 +43 +52 опасность
перегрева
1011.8 1011.3
21 20.03 С 9 6000 м мгла 5/3 <50 м
[Cu Sc Ci fib]
+34.2 +21.4 47 +42 +42 опасность
перегрева
1008.2 1007.7
00 21.03 С 7 6000 м мгла 5/1 600 м
[Cu Sc Ci fib]
+28.8 +21.2 64 +36 +36 очень
душно
1008.7 1008.2 +34.4
03 21.03 СВ 6 6000 м мгла 5/1 600 м
[Cu Sc Ci fib]
+28.8 +21.2 64 +36 +36 очень
душно
1010.9 1010.4
12 21.03 штиль 0 6000 м мгла 5/1 600 м
[Cu Sc Ci sp]
+25.6 +22.7 84 +34 +36 очень
душно
1012.8 1012.3 +24.0
15 21.03 З 3 6000 м мгла 5/1 600 м
[Cu Sc Ci fib]
+28.4 +24.0 77 +39 +51 опасность
солнечного
удара
1014.4 1013.9
18 21.03 СЗ 2 7000 м мгла 3/1 600 м
[Cu Sc Ci fib]
+31.3 +23.1 62 +42 +59 опасность
перегрева
1012.0 1011.5
21 21.03 С 9 7000 м мгла 3/1 600 м
[Cu Sc Ci fib]
+33.1 +22.2 53 +42 +43 опасность
перегрева
1008.1 1007.6
00 22.03 СВ 7 7000 м мгла 3/1 600 м
[Cu hum Ci fib]
+28.0 +21.2 67 +35 +35 очень
душно
1008.5 1008.0 +32.2
03 22.03 СВ 2 7000 м мгла 3/1 600 м
[Sc Ci fib]
+27.2 +21.4 71 +35 +35 очень
душно
1011.6 1011.1
12 22.03 штиль 0 7000 м мгла 5/4 600 м
[Sc Ci sp]
+25.2 +22.7 86 +33 +35 очень
душно
1013.0 1012.5 +24.7
15 22.03 З 2 5000 м мгла 5/3 600 м
[Cu Sc Ci fib]
+28.3 +24.4 79 +40 +51 опасность
солнечного
удара
1014.7 1014.2

 

Местоположение метеостанции Санта-Марта (Колумбия): широта 11.13 долгота -74.23 высота над уровнем моря 14 м.

В архиве по умолчанию представлена погода в Санта-Марте за последнюю неделю. Архивные данные за месяц целиком и за предыдущие месяцы, начиная с января 2011 года, Вы можете получить, выбрав интересующий диапазон дат из раскрывающегося списка и нажав кнопку "Ввод!".


*Определитесь, кто Вы:
робот инопланетянин человек

Внимание! Время в таблицах - всемирное. Для получения местного времени необходимо прибавить поправку, которая равна -5 ч.

Смотрите также архив погоды в соседних городах и на ближайших метеорологических станциях:

Погода в Барранкилье (Колумбия) (66 км)
Погода в Вальедупаре (Колумбия) (132 км)
Погода в Риоаче (Колумбия) (149 км)
Погода в Картахене (Колумбия) (159 км)
Погода в Маракайбо аэропорту (Венесуэла) (280 км)
Погода в Маракайбо (Венесуэла) (290 км)
Погода в Монтерии (Колумбия) (312 км)
Погода в Мене Гранде (Венесуэла) (389 км)
Погода в Эль Вихии (Венесуэла) (397 км)
Погода в Кукуте (Колумбия) (403 км)

Пояснения к столбцам:

Ветер - указаны скорость ветра в м/с - средняя за 10 мин, порывы в срок и между сроками (в фигурных скобках) и направление, откуда дует ветер: С - северный, СВ - северо-восточный, В - восточный, ЮВ - юго-восточный, Ю - южный, ЮЗ - юго-западный, З - западный, СЗ - северо-западный.
Видимость - горизонтальная дальность видимости в метрах или километрах. При видимости от 1 до 10 км при отсутствии осадков обычно наблюдается дымка, при ухудшении видимости до 1 км и менее - туман. В сухую погоду видимость может ухудшаться дымом, пылью или мглою.
Явления - указаны атмосферные явления, наблюдавшиеся в срок или в последний час перед сроком; фигурными скобками обозначены явления, наблюдавшиеся между сроками (за 1-3 часа до срока); квадратными скобками обозначены град или гололедные отложения с указанием их диаметра в мм.
Облачность - указаны через наклонную черту общая и нижняя облачность в баллах и высота нижней границы облаков в метрах; квадратными скобками обозначены формы облаков: Ci - перистые, Cs - перисто-слоистые, Cc - перисто-кучевые, Ac - высококучевые, As - высокослоистые, Sc - слоисто-кучевые, Ns - слоисто-дождевые, Cu - кучевые, Cb - кучево-дождевые. Подробнее классификацию облаков см. в Атласе облаков (PDF).
T - Температура воздуха - температура, измеренная на высоте 2 м над землей.
Td - Температура точки росы - температура, при понижении до которой содержащийся в воздухе водяной пар достигнет насыщения.
f - Относительная влажность воздуха - влажноcть воздуха, измеренная на высоте 2 м над землей.
Te - Эффективная температура - температура, которую ощущает одетый по сезону человек в тени. Характеристика душности погоды. При расчете учитывается влияние влажности воздуха и скорости ветра на теплоощущения человека.
Tes - Эффективная температура на солнце - температура, которую ощущает человек, с поправкой на солнечный нагрев. Характеристика знойности погоды. Зависит от высоты солнца над горизонтом, облачности и скорости ветра. Ночью, в пасмурную погоду, а также при ветре 12 м/с и более поправка равна нулю.
P - Атмосферное давление - приведенное к уровню моря атмосферное давление.
Po - Атмосферное давление - измеренное на уровне метеостанции атмосферное давление.
Tmin - Минимальная температура - минимум температуры воздуха на высоте 2 м над землей.
Tmax - Максимальная температура - максимум температуры воздуха на высоте 2 м над землей.
R - Количество осадков - Количество выпавших осадков за период времени, мм. При наведении курсора мыши на число - период времени, за который выпало указанное количество осадков.
R24 - Количество осадков - Количество выпавших осадков за 24 часа, мм.
S - Снежный покров - Высота снежного покрова, см. При наведении курсора мыши на число - состояние снежного покрова и степень покрытия местности в баллах.